Location: Newark
(40.9833°N, 0.0333°W)
Time: 16:09:26
(UTC+00:00)

Vanguard 2 - All Passes

Search period start: 21 October 2020 00:00
Search period end: 31 October 2020 00:00
Orbit: 554 x 2937 km, 32.9° (Epoch: 20 October)

Date Brightness Start Highest point End Pass type
(mag) Time Alt. Az. Time Alt. Az. Time Alt. Az.
21 Oct - 00:17:31 10° W 00:35:07 64° S 00:48:32 10° ESE visible
21 Oct - 02:30:42 10° W 02:45:58 46° SSW 02:56:23 10° SE visible
21 Oct - 04:46:25 10° W 04:54:13 18° SW 05:00:19 10° S visible
21 Oct - 18:12:01 10° SSE 18:19:48 16° SE 18:28:30 10° E visible
21 Oct - 20:14:58 10° SSW 20:29:17 41° SSE 20:44:59 10° E visible
21 Oct - 22:23:49 10° WSW 22:40:53 62° S 22:56:36 10° E visible
22 Oct - 00:35:32 10° W 00:53:01 62° S 01:06:15 10° ESE visible
22 Oct - 02:49:00 10° W 03:03:28 40° SSW 03:13:33 10° SSE visible
22 Oct - 05:07:01 10° WSW 05:11:15 12° SW 05:14:58 10° SSW visible
22 Oct - 18:26:59 10° S 18:36:58 22° SE 18:48:37 10° E visible
22 Oct - 20:32:03 10° SW 20:46:52 48° SSE 21:03:13 10° E visible
22 Oct - 22:41:34 10° WSW 22:58:50 64° S 23:14:32 10° E visible
23 Oct - 00:53:36 10° W 01:10:51 58° SSW 01:23:53 10° ESE visible
23 Oct - 03:07:28 10° W 03:20:49 33° SW 03:30:28 10° SSE visible
23 Oct - 18:42:56 10° SSW 18:54:11 29° SE 19:07:47 10° E visible
23 Oct - 20:49:21 10° SW 21:04:36 54° SSE 21:21:21 10° E visible
23 Oct - 22:59:26 10° WSW 23:16:47 65° S 23:32:24 10° ESE visible
24 Oct - 01:11:43 10° W 01:28:36 53° SSW 01:41:23 10° SE visible
24 Oct - 03:26:13 10° W 03:38:04 26° SW 03:47:00 10° S visible
24 Oct - 17:02:47 10° SE 17:03:09 10° SE 17:03:30 10° SE daylight
24 Oct - 18:59:27 10° SSW 19:11:31 35° SE 19:26:28 10° E visible
24 Oct - 21:06:52 10° WSW 21:22:24 59° SSE 21:39:24 10° E visible
24 Oct - 23:17:22 10° W 23:34:45 65° S 23:50:13 10° ESE visible
25 Oct - 01:29:53 10° W 01:46:15 47° SSW 01:58:42 10° SE visible
25 Oct - 03:45:30 10° W 03:55:12 20° SW 04:02:57 10° S visible
25 Oct - 17:13:29 10° SSE 17:20:10 16° SE 17:28:01 10° E visible
25 Oct - 19:16:19 10° SSW 19:28:57 42° SSE 19:44:53 10° E visible
25 Oct - 21:24:31 10° WSW 21:40:17 63° S 21:57:24 10° E visible
25 Oct - 23:35:22 10° W 23:52:41 62° SSW 00:07:57 10° ESE visible
26 Oct - 01:48:11 10° W 02:03:45 40° SSW 02:15:48 10° SSE visible
26 Oct - 04:05:56 10° WSW 04:12:14 14° SW 04:17:43 10° SSW visible
26 Oct - 17:28:41 10° S 17:37:14 22° SE 17:48:01 10° E visible
26 Oct - 19:33:28 10° SW 19:46:31 49° SSE 20:03:08 10° E visible
26 Oct - 21:42:17 10° WSW 21:58:13 65° S 22:15:22 10° E visible
26 Oct - 23:53:23 10° W 00:10:32 58° SSW 00:25:34 10° ESE visible
27 Oct - 02:06:40 10° W 02:21:08 34° SW 02:32:37 10° SSE visible
27 Oct - 17:44:49 10° SSW 17:54:25 28° SE 18:07:06 10° E visible
27 Oct - 19:50:50 10° SW 20:04:11 55° SSE 20:21:17 10° E visible
27 Oct - 22:00:06 10° WSW 22:16:11 65° S 22:33:18 10° ESE visible
28 Oct - 00:11:28 10° W 00:28:18 53° SSW 00:43:01 10° SE visible
28 Oct - 02:25:28 10° W 02:38:25 27° SW 02:49:01 10° S visible
28 Oct - 18:01:26 10° SSW 18:11:41 35° SE 18:25:46 10° E visible
28 Oct - 20:08:22 10° WSW 20:21:58 60° SSE 20:39:23 10° E visible
28 Oct - 22:18:01 10° W 22:34:09 64° S 22:51:07 10° ESE visible
29 Oct - 00:29:38 10° W 00:45:58 46° SSW 01:00:18 10° SE visible
29 Oct - 02:44:48 10° W 02:55:36 20° SW 03:04:48 10° S visible
29 Oct - 16:15:55 10° SSE 16:21:01 14° SE 16:27:06 10° ESE daylight
29 Oct - 18:18:25 10° SW 18:29:06 42° SSE 18:44:11 10° E visible
29 Oct - 20:26:01 10° WSW 20:39:51 63° S 20:57:26 10° E visible
29 Oct - 22:35:58 10° W 22:52:05 61° SSW 23:08:51 10° ESE visible
30 Oct - 00:47:55 10° W 01:03:32 40° SSW 01:17:18 10° SSE visible
30 Oct - 03:05:20 10° WSW 03:12:43 14° SW 03:19:22 10° SSW visible
30 Oct - 16:31:10 10° S 16:38:04 20° SE 16:47:05 10° E daylight
30 Oct - 18:35:38 10° SW 18:46:38 48° SSE 19:02:25 10° E visible
30 Oct - 20:43:46 10° WSW 20:57:46 64° S 21:15:25 10° ESE visible
30 Oct - 22:53:57 10° W 23:09:57 56° SSW 23:26:26 10° SE visible
